Time,TemperatureF,DewpointF,PressureIn,WindDirection,WindDirectionDegrees,WindSpeedMPH,WindSpeedGustMPH,Humidity,HourlyPrecipIn,Conditions,Clouds,dailyrainin,SolarRadiationWatts/m^2,SoftwareType,DateUTC
2013-01-20 00:02:00,41.0,-6.0,-100.00,East,88,7.0,10.0,13,0.00,,,0.00,0.000000,,2013-01-20 07:02:00,
2013-01-20 00:12:00,41.0,-6.0,-100.00,East,88,7.0,10.0,13,0.00,,,0.00,0.000000,,2013-01-20 07:12:00,
2013-01-20 00:22:00,41.0,-6.0,-100.00,East,88,7.0,10.0,13,0.00,,,0.00,0.000000,,2013-01-20 07:22:00,
2013-01-20 00:52:00,47.0,7.0,-100.00,ESE,102,10.0,15.0,19,0.00,,,0.00,0.000000,,2013-01-20 07:52:00,
2013-01-20 01:02:00,47.0,7.0,-100.00,ESE,102,10.0,15.0,19,0.00,,,0.00,0.000000,,2013-01-20 08:02:00,
2013-01-20 01:12:00,47.0,7.0,-100.00,ESE,102,10.0,15.0,19,0.00,,,0.00,0.000000,,2013-01-20 08:12:00,
2013-01-20 01:22:00,47.0,7.0,-100.00,ESE,102,10.0,15.0,19,0.00,,,0.00,0.000000,,2013-01-20 08:22:00,
2013-01-20 01:53:00,46.0,1.0,-100.00,ESE,102,8.0,16.0,15,0.00,,,0.00,0.000000,,2013-01-20 08:53:00,
2013-01-20 02:02:00,46.0,1.0,-100.00,ESE,102,8.0,16.0,15,0.00,,,0.00,0.000000,,2013-01-20 09:02:00,
2013-01-20 02:12:00,46.0,1.0,-100.00,ESE,102,8.0,16.0,15,0.00,,,0.00,0.000000,,2013-01-20 09:12:00,
2013-01-20 02:22:00,46.0,1.0,-100.00,ESE,102,8.0,16.0,15,0.00,,,0.00,0.000000,,2013-01-20 09:22:00,
2013-01-20 02:53:00,44.0,1.0,-100.00,East,95,8.0,15.0,16,0.00,,,0.00,0.000000,,2013-01-20 09:53:00,
2013-01-20 03:02:00,44.0,1.0,-100.00,East,95,8.0,15.0,16,0.00,,,0.00,0.000000,,2013-01-20 10:02:00,
2013-01-20 03:12:00,44.0,1.0,-100.00,East,95,8.0,15.0,16,0.00,,,0.00,0.000000,,2013-01-20 10:12:00,
2013-01-20 03:22:00,44.0,1.0,-100.00,East,95,8.0,15.0,16,0.00,,,0.00,0.000000,,2013-01-20 10:22:00,
2013-01-20 03:52:00,43.0,-3.0,-100.00,ENE,71,1.0,12.0,14,0.00,,,0.00,0.000000,,2013-01-20 10:52:00,
2013-01-20 04:02:00,43.0,-3.0,-100.00,ENE,71,1.0,12.0,14,0.00,,,0.00,0.000000,,2013-01-20 11:02:00,
2013-01-20 04:12:00,43.0,-3.0,-100.00,ENE,71,1.0,12.0,14,0.00,,,0.00,0.000000,,2013-01-20 11:12:00,
2013-01-20 04:22:00,43.0,-3.0,-100.00,ENE,71,1.0,12.0,14,0.00,,,0.00,0.000000,,2013-01-20 11:22:00,
2013-01-20 04:53:00,41.0,-2.0,-100.00,East,101,5.0,7.0,16,0.00,,,-99.99,0.000000,,2013-01-20 11:53:00,
2013-01-20 05:03:00,41.0,-2.0,-100.00,East,101,5.0,7.0,16,0.00,,,-99.99,0.000000,,2013-01-20 12:03:00,
2013-01-20 05:12:00,41.0,-2.0,-100.00,East,101,5.0,7.0,16,0.00,,,-99.99,0.000000,,2013-01-20 12:12:00,
2013-01-20 05:22:00,41.0,-2.0,-100.00,East,101,5.0,7.0,16,0.00,,,-99.99,0.000000,,2013-01-20 12:22:00,
2013-01-20 05:53:00,39.0,-2.0,-100.00,East,86,4.0,8.0,17,0.00,,,0.00,0.000000,,2013-01-20 12:53:00,
2013-01-20 06:03:00,39.0,-2.0,-100.00,East,86,4.0,8.0,17,0.00,,,0.00,0.000000,,2013-01-20 13:03:00,
2013-01-20 06:12:00,39.0,-2.0,-100.00,East,86,4.0,8.0,17,0.00,,,0.00,0.000000,,2013-01-20 13:12:00,
2013-01-20 06:23:00,39.0,-2.0,-100.00,East,86,4.0,8.0,17,0.00,,,0.00,0.000000,,2013-01-20 13:23:00,
2013-01-20 06:53:00,39.0,0.0,-100.00,East,84,4.0,7.0,19,0.00,,,0.00,0.000000,,2013-01-20 13:53:00,
2013-01-20 07:02:00,39.0,0.0,-100.00,East,84,4.0,7.0,19,0.00,,,0.00,0.000000,,2013-01-20 14:02:00,
2013-01-20 07:12:00,39.0,0.0,-100.00,East,84,4.0,7.0,19,0.00,,,0.00,0.000000,,2013-01-20 14:12:00,
2013-01-20 07:23:00,39.0,0.0,-100.00,East,84,4.0,7.0,19,0.00,,,0.00,0.000000,,2013-01-20 14:23:00,
2013-01-20 07:53:00,40.0,3.0,-100.00,East,79,4.0,7.0,21,0.00,,,0.00,2.000000,,2013-01-20 14:53:00,
2013-01-20 08:03:00,40.0,3.0,-100.00,East,79,4.0,7.0,21,0.00,,,0.00,2.000000,,2013-01-20 15:03:00,
2013-01-20 08:12:00,40.0,3.0,-100.00,East,79,4.0,7.0,21,0.00,,,0.00,2.000000,,2013-01-20 15:12:00,
2013-01-20 08:23:00,40.0,3.0,-100.00,East,79,4.0,7.0,21,0.00,,,0.00,2.000000,,2013-01-20 15:23:00,
2013-01-20 08:53:00,40.0,3.0,-100.00,East,83,3.0,8.0,21,0.00,,,0.00,28.000000,,2013-01-20 15:53:00,
2013-01-20 09:03:00,40.0,3.0,-100.00,East,83,3.0,8.0,21,0.00,,,0.00,28.000000,,2013-01-20 16:03:00,
2013-01-20 09:12:00,40.0,3.0,-100.00,East,83,3.0,8.0,21,0.00,,,0.00,28.000000,,2013-01-20 16:12:00,
2013-01-20 09:23:00,40.0,3.0,-100.00,East,83,3.0,8.0,21,0.00,,,0.00,28.000000,,2013-01-20 16:23:00,
2013-01-20 09:53:00,53.0,5.0,-100.00,ESE,102,4.0,6.0,14,0.00,,,0.00,305.000000,,2013-01-20 16:53:00,
2013-01-20 10:03:00,53.0,5.0,-100.00,ESE,102,4.0,6.0,14,0.00,,,0.00,305.000000,,2013-01-20 17:03:00,
2013-01-20 10:12:00,53.0,5.0,-100.00,ESE,102,4.0,6.0,14,0.00,,,0.00,305.000000,,2013-01-20 17:12:00,
2013-01-20 10:22:00,53.0,5.0,-100.00,ESE,102,4.0,6.0,14,0.00,,,0.00,305.000000,,2013-01-20 17:22:00,
2013-01-20 10:53:00,58.0,7.0,-100.00,SW,219,4.0,7.0,13,0.00,,,0.00,158.000000,,2013-01-20 17:53:00,
2013-01-20 11:03:00,58.0,7.0,-100.00,SW,219,4.0,7.0,13,0.00,,,0.00,158.000000,,2013-01-20 18:03:00,
2013-01-20 11:13:00,58.0,7.0,-100.00,SW,219,4.0,7.0,13,0.00,,,0.00,158.000000,,2013-01-20 18:13:00,
2013-01-20 11:23:00,58.0,7.0,-100.00,SW,219,4.0,7.0,13,0.00,,,0.00,158.000000,,2013-01-20 18:23:00,
2013-01-20 11:53:00,55.0,8.0,-100.00,WSW,242,6.0,10.0,15,0.00,,,0.00,295.000000,,2013-01-20 18:53:00,
2013-01-20 12:02:00,55.0,8.0,-100.00,WSW,242,6.0,10.0,15,0.00,,,0.00,295.000000,,2013-01-20 19:02:00,
2013-01-20 12:12:00,55.0,8.0,-100.00,WSW,242,6.0,10.0,15,0.00,,,0.00,295.000000,,2013-01-20 19:12:00,
2013-01-20 12:22:00,55.0,8.0,-100.00,WSW,242,6.0,10.0,15,0.00,,,0.00,295.000000,,2013-01-20 19:22:00,
2013-01-20 12:53:00,58.0,12.0,-100.00,SW,232,5.0,10.0,16,0.00,,,0.00,737.000000,,2013-01-20 19:53:00,
2013-01-20 13:03:00,58.0,12.0,-100.00,SW,232,5.0,10.0,16,0.00,,,0.00,737.000000,,2013-01-20 20:03:00,
2013-01-20 13:12:00,58.0,12.0,-100.00,SW,232,5.0,10.0,16,0.00,,,0.00,737.000000,,2013-01-20 20:12:00,
2013-01-20 13:23:00,58.0,12.0,-100.00,SW,232,5.0,10.0,16,0.00,,,0.00,737.000000,,2013-01-20 20:23:00,
2013-01-20 13:53:00,60.0,9.0,-100.00,SW,226,5.0,9.0,13,0.00,,,0.00,741.000000,,2013-01-20 20:53:00,
2013-01-20 14:03:00,60.0,9.0,-100.00,SW,226,5.0,9.0,13,0.00,,,0.00,741.000000,,2013-01-20 21:03:00,
2013-01-20 14:13:00,60.0,9.0,-100.00,SW,226,5.0,9.0,13,0.00,,,0.00,741.000000,,2013-01-20 21:13:00,
2013-01-20 14:23:00,60.0,9.0,-100.00,SW,226,5.0,9.0,13,0.00,,,0.00,741.000000,,2013-01-20 21:23:00,
2013-01-20 14:53:00,58.0,7.0,-100.00,SW,218,5.0,10.0,13,0.00,,,0.00,671.000000,,2013-01-20 21:53:00,
2013-01-20 15:03:00,58.0,7.0,-100.00,SW,218,5.0,10.0,13,0.00,,,0.00,671.000000,,2013-01-20 22:03:00,
2013-01-20 15:13:00,58.0,7.0,-100.00,SW,218,5.0,10.0,13,0.00,,,0.00,671.000000,,2013-01-20 22:13:00,
2013-01-20 15:22:00,58.0,7.0,-100.00,SW,218,5.0,10.0,13,0.00,,,0.00,671.000000,,2013-01-20 22:22:00,
2013-01-20 15:53:00,58.0,9.0,-100.00,NW,306,3.0,11.0,14,0.00,,,0.00,534.000000,,2013-01-20 22:53:00,
2013-01-20 16:03:00,58.0,9.0,-100.00,NW,306,3.0,11.0,14,0.00,,,0.00,534.000000,,2013-01-20 23:03:00,
2013-01-20 16:13:00,58.0,9.0,-100.00,NW,306,3.0,11.0,14,0.00,,,0.00,534.000000,,2013-01-20 23:13:00,
2013-01-20 16:23:00,58.0,9.0,-100.00,NW,306,3.0,11.0,14,0.00,,,0.00,534.000000,,2013-01-20 23:23:00,
2013-01-20 16:53:00,56.0,9.0,-100.00,WNW,298,5.0,12.0,15,0.00,,,0.00,344.000000,,2013-01-20 23:53:00,
2013-01-20 17:03:00,56.0,9.0,-100.00,WNW,298,5.0,12.0,15,0.00,,,0.00,344.000000,,2013-01-21 00:03:00,
2013-01-20 17:13:00,56.0,9.0,-100.00,WNW,298,5.0,12.0,15,0.00,,,0.00,344.000000,,2013-01-21 00:13:00,
2013-01-20 17:23:00,56.0,9.0,-100.00,WNW,298,5.0,12.0,15,0.00,,,0.00,344.000000,,2013-01-21 00:23:00,
2013-01-20 17:54:00,52.0,9.0,-100.00,NNW,334,0.0,7.0,17,0.00,,,0.00,121.000000,,2013-01-21 00:54:00,
2013-01-20 18:03:00,52.0,9.0,-100.00,NNW,334,0.0,7.0,17,0.00,,,0.00,121.000000,,2013-01-21 01:03:00,
2013-01-20 18:13:00,52.0,9.0,-100.00,NNW,334,0.0,7.0,17,0.00,,,0.00,121.000000,,2013-01-21 01:13:00,
2013-01-20 18:23:00,52.0,9.0,-100.00,NNW,334,0.0,7.0,17,0.00,,,0.00,121.000000,,2013-01-21 01:23:00,
2013-01-20 18:53:00,47.0,6.0,-100.00,East,82,0.0,5.0,18,0.00,,,0.00,0.000000,,2013-01-21 01:53:00,
2013-01-20 19:03:00,47.0,6.0,-100.00,East,82,0.0,5.0,18,0.00,,,0.00,0.000000,,2013-01-21 02:03:00,
2013-01-20 19:12:00,47.0,6.0,-100.00,East,82,0.0,5.0,18,0.00,,,0.00,0.000000,,2013-01-21 02:12:00,
2013-01-20 19:23:00,47.0,6.0,-100.00,East,82,0.0,5.0,18,0.00,,,0.00,0.000000,,2013-01-21 02:23:00,
2013-01-20 19:53:00,46.0,4.0,-100.00,ENE,78,0.0,5.0,17,0.00,,,0.00,0.000000,,2013-01-21 02:53:00,
2013-01-20 20:03:00,46.0,4.0,-100.00,ENE,78,0.0,5.0,17,0.00,,,0.00,0.000000,,2013-01-21 03:03:00,
2013-01-20 20:13:00,46.0,4.0,-100.00,ENE,78,0.0,5.0,17,0.00,,,0.00,0.000000,,2013-01-21 03:13:00,
2013-01-20 20:23:00,46.0,4.0,-100.00,ENE,78,0.0,5.0,17,0.00,,,0.00,0.000000,,2013-01-21 03:23:00,
2013-01-20 20:53:00,44.0,3.0,-100.00,East,82,3.0,5.0,18,0.00,,,-99.99,0.000000,,2013-01-21 03:53:00,
2013-01-20 21:03:00,44.0,3.0,-100.00,East,82,3.0,5.0,18,0.00,,,-99.99,0.000000,,2013-01-21 04:03:00,
2013-01-20 21:12:00,44.0,3.0,-100.00,East,82,3.0,5.0,18,0.00,,,-99.99,0.000000,,2013-01-21 04:12:00,
2013-01-20 21:23:00,44.0,3.0,-100.00,East,82,3.0,5.0,18,0.00,,,-99.99,0.000000,,2013-01-21 04:23:00,
2013-01-20 21:53:00,46.0,7.0,-100.00,East,80,0.0,4.0,20,0.00,,,0.00,0.000000,,2013-01-21 04:53:00,
2013-01-20 22:03:00,46.0,7.0,-100.00,East,80,0.0,4.0,20,0.00,,,0.00,0.000000,,2013-01-21 05:03:00,
2013-01-20 22:12:00,46.0,7.0,-100.00,East,80,0.0,4.0,20,0.00,,,0.00,0.000000,,2013-01-21 05:12:00,
2013-01-20 22:22:00,46.0,7.0,-100.00,East,80,0.0,4.0,20,0.00,,,0.00,0.000000,,2013-01-21 05:22:00,
2013-01-20 22:53:00,42.0,9.0,-100.00,East,86,5.0,6.0,25,0.00,,,0.00,0.000000,,2013-01-21 05:53:00,
2013-01-20 23:03:00,42.0,9.0,-100.00,East,86,5.0,6.0,25,0.00,,,0.00,0.000000,,2013-01-21 06:03:00,
2013-01-20 23:12:00,42.0,9.0,-100.00,East,86,5.0,6.0,25,0.00,,,0.00,0.000000,,2013-01-21 06:12:00,
2013-01-20 23:23:00,42.0,9.0,-100.00,East,86,5.0,6.0,25,0.00,,,0.00,0.000000,,2013-01-21 06:23:00,
2013-01-20 23:53:00,44.0,12.0,-100.00,East,101,5.0,8.0,27,0.00,,,0.00,0.000000,,2013-01-21 06:53:00,